Wind_Speed
26 25 25 24 24 23 23 23 23 22 22 22 21 21 20 20 19 19 18 18 18 18 18 18 18 18 18 18 18 17 17 17 16 16 16 15 15 15 15 15 15 15 15 15 15 15 16 17 18 18 19 19 20 21 21 21 21 22 23 24 26 27 27 27 26 24 22 21 21 20 18 18 19 19 18 19 19 21 20 19 19 20 21 21 19 18 18 18
28 27 27 26 26 25 25 25 24 24 24 23 23 22 22 21 21 21 20 20 20 20 20 20 20 20 20 19 19 19 19 19 18 18 18 17 17 17 17 17 17 18 18 18 18 18 19 20 20 21 21 22 22 23 23 23 23 24 25 27 28 28 28 27 26 23 21 21 22 21 20 20 21 20 20 20 21 23 21 21 21 20 21 21 21 20 19 20
29 29 29 28 28 27 27 27 26 26 25 25 24 24 24 23 23 23 23 22 22 22 22 22 22 22 21 21 21 20 20 20 20 19 19 19 19 19 20 20 20 20 21 21 21 21 22 22 23 23 24 24 24 25 25 25 26 27 28 28 28 28 27 26 25 23 22 22 22 22 21 21 22 21 21 20 21 25 22 21 22 22 22 22 23 23 22 21
31 31 30 30 29 29 28 28 28 27 27 26 26 26 26 25 25 25 25 25 25 24 24 24 24 23 23 22 22 21 21 21 21 20 20 21 21 21 22 22 22 23 23 23 23 23 24 24 25 25 25 26 26 27 27 27 28 29 29 29 28 27 26 25 24 23 23 23 23 23 22 23 24 23 22 20 21 25 25 23 22 22 23 23 25 24 24 23
33 32 32 31 31 30 30 30 29 29 29 29 28 28 28 28 27 27 27 27 27 27 26 26 25 25 24 24 23 23 23 23 23 22 22 22 23 23 24 24 25 25 25 25 25 25 26 26 27 27 27 28 29 30 30 30 30 30 29 29 27 24 25 25 24 24 25 25 25 25 24 24 25 25 24 23 23 24 25 26 25 24 24 24 26 25 24 24
34 34 33 33 33 32 32 32 32 31 31 31 31 30 30 30 30 30 30 29 29 29 28 28 27 26 26 25 25 24 24 25 24 23 24 24 25 25 25 26 27 27 27 27 27 28 28 28 29 29 30 31 32 32 32 31 30 29 28 27 24 22 23 24 24 26 27 28 28 27 26 26 26 25 26 26 26 25 25 27 29 29 28 26 26 25 25 25
36 36 35 35 35 34 34 34 34 34 34 33 33 33 33 33 32 32 32 32 31 31 30 29 28 28 27 26 26 25 26 27 25 25 26 26 27 27 27 28 29 29 30 30 30 31 31 31 31 32 32 33 33 33 32 31 29 26 25 24 22 21 22 23 24 27 29 29 30 29 27 28 27 25 26 28 27 27 27 28 30 33 32 29 27 26 26 25
39 38 38 38 37 37 37 37 37 36 36 36 36 36 35 35 35 35 34 34 33 32 31 30 30 29 28 28 27 27 28 29 27 27 28 28 29 29 30 30 31 32 32 33 33 33 33 33 33 32 32 32 31 31 30 29 26 24 22 22 22 22 22 24 26 29 31 31 31 30 28 29 29 26 26 27 27 27 28 28 30 33 34 32 30 28 27 26
42 41 41 41 40 40 40 39 39 39 39 38 38 38 37 37 37 36 35 35 34 33 32 31 30 30 29 29 28 28 31 31 30 30 31 31 32 32 32 33 33 33 33 33 32 32 31 31 30 30 30 29 28 28 28 27 25 24 22 21 22 23 24 27 29 32 32 31 31 30 28 29 29 27 28 28 27 28 29 30 31 33 34 34 32 30 28 27
44 43 43 43 42 42 41 41 40 40 39 39 38 38 38 37 36 36 35 34 34 33 32 31 31 31 30 30 29 30 33 32 32 33 33 34 34 34 35 34 34 33 32 31 30 29 29 29 29 29 29 28 27 28 28 27 26 25 24 23 24 26 27 31 33 33 32 31 32 31 29 30 30 28 29 29 28 28 29 30 32 32 32 33 32 31 30 29
44 44 43 43 42 42 41 40 40 39 39 38 38 37 36 36 35 35 34 34 33 33 32 32 32 32 32 32 31 32 35 35 35 35 36 36 36 36 36 35 34 33 32 31 30 30 30 30 30 30 30 29 29 29 29 28 28 27 27 26 28 30 30 34 35 33 32 32 33 33 30 29 30 28 28 28 28 28 29 30 32 32 32 32 32 32 32 32
45 45 44 43 43 42 42 41 41 40 40 39 39 38 38 37 37 36 36 35 35 35 35 35 35 35 35 34 33 35 37 37 37 38 38 38 38 37 36 35 34 34 33 32 32 32 33 33 33 33 32 31 31 31 31 30 30 30 31 31 31 33 33 35 35 33 32 33 34 35 32 29 28 29 28 28 28 29 31 32 33 33 32 32 32 33 33 34
47 47 46 46 45 45 44 44 43 43 43 42 42 41 41 40 40 39 39 39 38 38 38 38 38 38 38 36 36 38 38 38 39 39 39 39 38 37 36 35 35 35 35 35 34 35 36 35 35 35 34 33 33 33 33 33 32 33 35 35 34 34 33 34 35 34 33 35 35 36 35 29 26 28 29 29 29 30 32 34 34 33 33 33 32 33 33 34
48 48 47 47 47 47 46 46 45 45 45 45 44 44 44 43 43 42 42 42 42 41 41 41 41 41 41 39 38 39 39 39 40 40 40 38 38 37 37 37 37 37 37 37 37 37 38 37 37 36 35 35 34 34 34 34 34 35 36 36 36 35 32 32 34 35 35 36 36 37 37 31 26 27 30 31 32 32 33 33 33 32 32 32 32 32 33 33
49 48 48 48 48 47 47 47 46 46 46 46 46 46 45 45 45 44 44 44 43 43 43 43 43 43 43 40 40 40 40 40 40 40 40 39 39 39 39 40 39 39 40 40 40 39 39 38 38 37 36 35 35 35 34 34 35 35 37 37 37 36 33 31 33 36 37 37 37 38 38 34 28 26 29 32 34 33 32 32 32 31 30 30 30 31 32 32
51 50 49 49 48 48 48 47 47 47 47 47 46 46 46 45 45 45 45 45 45 44 44 44 44 44 44 41 40 41 40 41 41 41 41 41 42 42 42 42 41 42 42 41 41 40 39 39 38 38 37 36 35 35 36 36 35 36 38 38 37 37 36 33 32 35 38 38 38 38 38 36 31 28 29 33 33 32 31 30 30 30 29 29 29 30 31 31
50 50 50 50 50 49 49 49 49 49 48 48 48 47 47 47 46 46 46 46 46 45 46 46 45 46 45 43 42 42 42 43 42 43 43 43 43 43 43 43 43 43 42 42 41 40 40 40 39 39 38 37 36 36 38 39 37 38 39 40 39 39 39 37 33 34 38 39 39 39 38 36 33 30 31 32 32 31 30 30 30 30 29 28 29 29 29 29
49 49 49 49 49 50 50 50 50 50 49 49 49 49 48 48 48 48 48 47 47 47 47 47 47 47 46 44 44 43 43 44 43 43 44 43 43 43 43 43 43 43 42 42 41 41 41 40 40 39 38 36 37 39 42 41 40 40 41 41 41 41 40 39 36 36 38 39 39 38 38 36 33 33 33 33 32 31 31 30 30 30 29 29 29 29 29 29
49 48 48 48 48 48 48 48 48 48 48 47 47 47 47 47 47 47 47 47 47 46 47 47 46 46 45 44 43 43 43 43 42 42 42 42 42 41 41 41 41 41 41 41 41 41 42 42 42 40 37 37 40 42 43 43 42 42 42 42 42 42 41 39 38 39 39 38 37 37 37 36 34 34 35 34 34 33 32 31 30 29 29 29 29 30 30 30
50 50 49 49 49 49 48 48 48 47 47 46 46 46 46 46 46 46 46 46 45 45 46 46 45 45 44 43 42 42 42 42 42 41 41 41 40 41 41 41 41 42 41 41 43 44 44 45 44 40 38 40 43 43 43 43 42 42 42 42 42 42 40 38 39 40 40 39 37 36 36 35 34 35 34 34 34 34 34 33 31 29 28 28 28 28 29 29
51 51 51 50 50 50 49 49 48 48 47 47 47 47 47 47 47 47 47 47 46 47 47 46 46 45 44 44 44 45 45 44 43 42 42 42 42 42 42 42 43 43 43 44 45 45 45 46 44 40 40 43 43 43 42 42 42 43 43 43 42 41 40 40 40 40 41 41 39 37 36 34 34 34 33 32 32 33 33 32 31 30 29 29 28 29 29 30
52 52 51 51 51 50 50 49 49 48 48 47 47 46 46 47 47 47 47 47 47 47 48 48 48 47 46 47 47 47 47 46 44 44 44 44 43 43 43 43 44 44 44 45 45 45 46 46 42 41 42 43 42 42 43 43 43 43 43 43 42 41 41 42 42 41 42 42 40 39 38 36 35 34 32 31 31 32 32 31 31 31 32 32 32 33 33 33
55 54 53 52 52 51 50 50 49 49 48 48 47 47 47 47 48 48 48 48 46 45 46 47 47 47 46 47 48 48 49 47 45 45 44 44 43 42 43 44 43 44 44 44 44 44 46 43 41 41 43 43 43 43 43 43 43 44 44 44 42 41 43 43 42 42 42 42 41 40 39 38 36 35 32 31 31 32 33 32 32 33 34 35 36 37 37 38
57 56 55 54 53 53 52 51 50 50 50 49 49 49 49 50 50 50 50 51 49 46 45 46 46 46 45 46 48 49 49 47 46 45 44 43 43 43 44 44 44 44 43 42 42 44 44 41 40 41 41 42 43 42 42 42 43 43 43 43 42 41 42 42 40 40 40 40 40 40 40 39 37 35 33 33 34 34 34 34 34 35 36 37 38 39 39 40
60 59 58 57 56 54 53 53 52 52 51 51 52 52 53 53 53 53 53 55 55 50 46 47 48 48 47 47 46 46 46 46 45 44 43 43 43 44 44 44 44 43 42 41 43 45 43 40 40 41 41 42 42 41 40 40 41 41 40 40 40 40 39 39 39 39 39 39 39 40 42 41 39 37 35 35 36 37 36 36 36 36 37 37 38 39 39 40
63 62 61 59 58 56 55 54 53 53 53 54 55 55 56 56 56 56 56 58 59 55 51 49 49 50 49 48 46 45 46 45 44 43 43 43 44 44 44 44 44 43 43 44 45 45 42 41 42 43 42 42 41 39 38 39 39 37 36 37 38 38 38 38 39 39 40 40 40 41 43 43 43 41 39 38 39 39 38 37 37 38 38 38 38 38 39 39
65 64 63 61 60 58 57 56 55 54 54 55 56 57 59 59 59 59 58 61 62 59 56 54 52 52 50 48 47 46 47 46 43 43 43 44 45 45 45 45 44 43 44 45 45 44 41 41 42 42 41 41 40 39 39 39 38 36 36 38 38 39 39 40 41 41 42 42 43 42 42 44 44 42 40 41 41 39 37 37 37 38 38 38 39 39 40 40
65 64 63 62 60 59 58 57 56 55 55 57 58 59 60 60 60 59 59 63 63 60 59 58 55 53 50 48 46 45 46 46 44 44 43 43 44 43 44 44 43 43 44 44 43 41 41 41 41 41 41 40 40 41 41 40 39 38 38 39 39 40 41 41 42 42 43 43 44 42 41 44 45 43 43 43 41 39 38 37 37 37 37 38 39 40 40 41
61 63 63 62 61 60 59 57 56 56 57 58 58 58 58 57 57 58 59 61 61 59 60 59 56 52 49 46 45 44 44 44 44 44 43 43 43 42 41 42 42 42 42 42 41 40 41 40 40 40 40 40 40 41 40 40 40 39 39 39 40 41 41 42 42 43 43 44 44 41 40 43 45 46 46 44 40 39 40 39 38 38 37 38 38 39 40 41
55 58 61 62 61 60 58 58 57 58 58 57 56 55 53 51 51 52 54 54 54 56 57 55 52 49 47 44 43 42 41 41 41 42 42 42 42 42 41 41 41 40 41 40 39 39 39 39 39 39 39 39 40 39 39 40 40 39 39 40 40 41 41 42 42 43 44 44 43 41 41 44 46 48 48 45 42 42 42 42 42 42 41 40 40 41 41 42
49 52 56 59 60 60 59 58 57 57 55 52 50 48 46 45 45 46 47 47 47 49 50 49 46 43 42 40 39 39 39 40 40 41 42 42 42 42 41 41 41 41 41 40 38 38 38 38 38 38 39 39 39 39 39 40 40 40 40 40 40 41 42 42 42 42 43 43 42 42 43 44 46 48 47 47 46 46 46 46 46 46 46 45 45 44 44 44
46 48 51 54 56 57 57 55 54 53 51 47 45 44 43 44 45 45 45 43 43 45 45 44 41 39 38 39 39 40 40 40 40 40 41 41 41 41 41 41 41 41 40 38 37 38 39 39 39 39 40 39 39 40 40 40 40 41 40 40 40 41 42 43 42 41 41 42 42 43 44 46 48 47 46 47 48 48 49 49 49 49 49 48 47 46 46 46
47 47 50 51 51 51 51 51 51 51 48 46 45 45 46 48 49 48 46 45 46 47 45 42 41 40 40 41 41 42 42 42 41 41 41 40 40 40 41 41 40 40 40 39 39 40 40 40 40 40 39 39 40 40 39 40 40 40 39 39 39 41 42 42 41 41 42 43 44 45 47 49 50 48 47 47 48 50 50 50 50 50 50 49 48 48 48 48
47 49 51 51 50 50 50 49 50 50 48 47 47 47 49 52 54 52 49 48 48 48 47 45 42 41 42 43 43 44 43 43 43 42 41 41 41 41 40 41 41 41 42 42 42 41 40 39 38 38 38 38 38 38 38 39 40 40 38 38 40 39 39 40 42 45 47 47 48 49 50 51 50 49 50 50 51 51 51 51 51 51 50 50 49 49 49 49
50 51 50 47 47 48 49 48 46 46 46 47 47 48 52 57 57 53 48 45 43 43 44 44 43 44 45 45 45 45 45 45 45 44 44 44 43 43 42 42 42 42 42 42 41 41 41 40 38 37 38 38 38 38 39 39 40 40 40 40 40 37 38 42 47 49 50 51 52 52 52 52 50 51 52 53 53 53 52 52 52 51 51 50 50 50 50 50
50 53 50 46 44 45 47 48 46 43 43 44 47 49 51 53 51 49 45 43 41 41 41 42 43 45 46 46 45 45 45 45 46 46 46 46 45 45 44 42 41 42 42 41 39 41 43 43 40 38 38 38 38 38 38 39 40 42 42 42 40 40 43 47 50 51 51 53 54 54 54 53 52 53 54 54 54 54 53 52 52 51 50 50 50 50 49 50
48 49 48 46 45 45 46 47 47 45 44 45 48 50 49 47 46 45 45 45 44 42 41 42 44 45 45 45 44 44 43 43 44 44 44 44 46 47 45 41 41 43 43 40 40 43 46 47 45 42 40 41 41 40 41 42 43 43 43 43 43 46 48 49 51 52 53 55 56 56 56 56 55 55 54 53 53 53 52 51 51 51 51 50 50 50 50 50
48 48 48 46 45 46 47 47 48 47 46 47 49 50 50 50 49 48 47 47 47 47 46 46 47 48 48 48 46 43 40 40 41 42 43 45 47 48 44 41 41 42 41 41 43 46 48 49 49 47 44 44 43 43 45 45 44 44 45 46 48 50 51 51 52 53 55 57 59 59 58 58 57 55 54 52 52 52 52 51 51 51 50 50 50 51 51 51
49 48 48 47 46 46 47 47 48 48 49 50 48 48 50 51 51 51 50 49 49 49 49 49 49 49 50 51 48 45 44 45 46 47 49 50 50 50 47 44 43 42 41 42 43 45 46 48 50 48 46 46 46 47 47 45 45 46 48 50 51 51 52 53 53 55 57 59 60 60 59 58 56 54 53 53 52 52 53 52 51 51 50 51 52 52 53 53
51 50 50 48 47 47 47 47 47 48 52 53 49 48 49 49 49 49 49 49 49 49 50 50 50 50 51 52 50 50 50 51 52 52 53 54 54 54 52 49 48 46 45 45 45 46 47 48 50 49 49 50 50 49 47 47 48 49 51 52 52 53 53 53 55 56 57 58 59 59 59 59 57 56 58 58 55 54 54 53 52 52 52 52 53 54 55 55
54 54 53 52 52 52 52 52 52 51 52 52 51 51 51 51 51 50 49 49 50 51 52 52 53 53 53 54 54 54 54 55 55 55 57 58 56 55 53 51 50 49 49 48 48 48 49 50 51 52 52 53 52 51 51 50 51 51 51 52 52 52 52 53 56 56 55 57 56 57 60 59 58 59 61 60 56 54 55 54 53 54 55 55 56 56 57 57
56 55 54 54 56 57 57 57 56 55 54 54 53 53 53 53 53 52 51 51 52 53 53 53 53 53 52 51 50 51 52 53 54 55 56 56 54 53 53 52 52 52 51 52 52 52 52 53 54 55 56 54 54 54 54 52 51 51 51 51 50 51 51 53 55 54 53 55 56 58 61 58 54 55 57 58 56 54 54 54 55 56 57 58 58 58 59 59
58 57 55 53 53 54 56 58 59 58 56 55 55 55 55 56 57 56 56 55 54 54 52 49 47 46 46 46 46 48 49 51 53 54 55 55 54 54 55 55 56 56 56 55 55 54 53 53 55 56 56 55 55 55 54 53 52 51 50 49 49 49 50 52 54 53 54 57 57 59 62 59 55 54 54 56 57 55 54 55 57 58 59 59 60 61 61 62
60 60 58 56 55 55 56 58 60 60 58 56 56 55 56 58 60 61 60 58 56 55 52 49 46 45 46 47 49 50 52 53 55 56 57 58 59 59 60 60 60 60 59 58 57 55 54 53 53 53 54 55 55 54 53 53 51 50 50 49 49 50 51 52 54 55 58 59 58 60 63 61 57 55 55 56 57 55 55 57 58 59 59 60 62 62 63 64
60 61 62 62 61 61 61 60 60 59 58 57 57 56 57 59 60 62 62 61 60 59 58 56 54 52 52 52 53 54 55 56 57 58 58 58 59 60 61 61 60 58 57 56 55 52 51 51 52 53 54 56 56 56 54 52 51 52 52 52 53 53 54 55 56 58 62 63 61 62 64 62 58 56 56 57 57 56 57 59 60 60 61 62 63 64 64 65
61 61 61 61 62 62 61 60 60 60 59 59 59 58 57 57 58 60 62 62 61 60 60 61 60 59 59 58 59 59 59 58 59 60 60 60 60 60 60 59 57 56 54 53 51 49 51 53 54 53 53 54 54 53 53 51 52 54 55 56 57 57 57 58 60 63 65 65 65 64 64 63 59 56 57 58 58 59 60 61 61 62 63 64 64 65 65 65
64 63 61 60 61 60 59 60 60 59 59 61 62 61 59 58 58 59 62 63 62 61 60 61 62 63 63 63 63 63 62 61 62 63 63 63 62 61 60 58 56 54 53 53 53 53 55 57 57 55 54 53 52 52 52 53 55 56 58 60 61 62 62 62 64 66 65 65 66 65 64 65 61 56 57 59 59 60 62 62 63 64 65 66 66 66 66 66
65 64 63 62 62 61 61 61 60 60 60 61 63 63 63 63 62 62 63 64 64 63 62 63 62 62 64 66 66 66 65 65 65 65 64 62 61 59 57 56 54 54 53 55 56 57 59 60 59 59 58 58 56 55 56 58 60 61 61 62 62 63 64 65 66 67 66 67 68 66 66 67 62 57 59 61 60 61 63 64 66 66 66 66 66 66 67 68
64 63 62 63 63 62 62 62 61 61 62 62 63 63 64 64 64 63 63 64 65 64 64 64 63 62 63 64 65 66 66 66 66 64 61 59 58 57 56 55 55 55 56 58 59 61 62 63 63 63 63 64 63 63 63 64 65 65 64 63 63 64 65 67 67 67 67 69 69 66 68 67 62 60 61 61 62 64 64 65 65 65 65 65 66 67 67 67
64 64 63 63 63 62 62 61 62 62 61 62 62 61 61 62 62 60 60 61 61 61 62 62 61 61 62 62 63 64 63 63 63 61 60 59 59 58 57 57 57 58 60 61 63 64 65 66 66 66 67 68 68 68 68 67 68 67 66 64 64 65 67 67 66 66 67 69 68 67 69 68 62 60 61 62 63 65 65 64 63 63 64 65 65 65 65 65
65 64 63 63 63 62 61 60 60 60 60 60 60 58 58 58 57 57 57 58 58 58 59 59 58 59 60 60 60 59 59 60 62 61 61 62 61 60 60 61 61 62 64 65 66 67 67 68 69 69 70 70 70 69 69 68 68 69 67 65 65 66 65 64 65 65 66 67 66 67 69 67 62 60 62 63 63 64 63 62 63 63 64 65 64 64 65 65
64 63 62 62 61 61 60 60 60 60 59 58 57 57 56 56 55 56 58 58 57 57 58 57 57 59 60 60 59 58 59 62 63 62 63 64 63 63 64 65 65 65 66 66 67 68 69 69 70 70 71 71 69 69 68 68 69 70 69 66 63 62 62 63 64 64 63 65 66 67 67 65 62 62 64 63 62 62 62 63 64 64 64 64 64 64 65 66
Wind_Direction
236 237 238 238 239 239 240 241 242 242 243 243 244 245 247 249 252 255 258 261 263 266 269 272 275 277 278 279 278 275 272 270 268 265 264 264 266 267 268 269 270 271 272 273 275 277 279 280 282 283 284 285 286 287 288 288 291 293 294 294 295 296 296 297 298 298 299 299 298 297 298 295 293 294 294 294 294 293 298 305 307 302 298 299 298 292 288 286
237 238 240 240 241 242 242 243 243 244 245 246 246 248 249 251 253 256 258 261 263 265 268 271 274 276 277 277 275 273 270 268 266 265 265 266 267 268 270 272 273 274 274 275 278 279 280 281 282 283 283 285 286 287 288 289 291 292 292 292 293 294 294 295 295 295 297 297 297 298 299 297 293 292 291 295 297 294 298 304 305 302 298 296 294 290 287 286
237 238 240 241 242 242 243 244 244 245 246 247 248 249 251 253 255 257 259 261 263 265 267 270 273 274 275 274 273 270 268 266 265 264 265 267 268 269 271 272 274 275 275 277 278 280 281 282 283 283 284 285 286 286 287 289 290 290 290 290 291 292 291 291 291 292 294 295 296 298 300 298 294 292 292 296 297 294 298 303 303 300 296 294 291 289 289 289
237 238 239 240 241 242 243 244 245 246 247 248 249 251 252 254 256 258 259 262 263 265 267 270 271 273 272 271 270 268 267 266 266 265 266 268 268 270 272 273 274 275 276 278 279 279 280 281 281 282 283 284 285 285 286 288 289 289 289 288 289 289 288 287 288 290 292 293 295 298 300 298 295 294 295 296 293 293 299 301 297 294 292 290 288 289 291 295
238 239 240 241 242 243 244 245 246 247 249 250 251 252 254 256 257 259 261 262 264 266 268 269 270 270 269 268 267 266 266 265 266 268 269 269 270 272 273 275 276 277 278 278 279 279 279 280 280 282 283 284 284 285 286 287 288 288 288 287 287 286 284 285 287 289 291 293 296 298 299 297 295 297 299 298 294 294 298 298 294 289 286 285 285 289 293 297
240 241 242 243 244 245 246 248 249 250 251 252 253 254 256 257 259 260 262 264 265 267 268 269 268 268 267 266 264 264 265 265 267 270 271 271 273 274 275 276 277 278 279 280 280 280 280 280 281 282 283 284 284 285 286 287 287 286 286 285 284 282 282 285 288 290 292 296 299 299 299 296 295 298 299 297 294 295 295 293 292 289 285 284 285 288 291 294
242 243 244 245 246 248 249 250 251 252 253 254 255 256 257 259 260 262 263 265 266 267 267 267 267 266 264 264 263 264 264 266 268 270 271 273 274 275 276 277 278 279 280 281 281 281 281 282 282 282 283 283 284 285 285 285 284 283 282 282 280 278 279 283 287 289 292 297 299 299 298 295 293 295 294 293 293 295 293 291 290 289 288 287 287 288 290 294
244 245 246 247 248 249 251 252 253 254 255 256 257 258 259 261 262 263 264 264 265 265 264 264 263 263 262 261 262 263 264 266 268 269 270 272 273 275 276 277 278 280 280 281 282 282 281 281 281 281 282 282 283 283 283 283 281 278 276 276 276 275 276 279 283 287 291 295 294 293 293 290 291 292 291 290 292 291 290 289 287 287 289 289 289 289 291 294
247 248 248 249 250 251 252 254 255 256 257 258 259 260 260 261 262 262 263 263 263 262 261 260 260 260 260 260 260 262 264 266 268 269 271 272 274 276 277 279 280 281 281 281 282 282 282 282 282 282 282 283 283 282 282 281 279 277 273 271 271 273 276 279 282 285 288 290 288 287 287 287 289 291 290 289 289 288 287 286 285 285 287 289 290 291 293 293
248 249 250 251 252 253 254 255 256 257 258 258 259 260 260 260 260 261 261 260 260 260 259 259 259 259 260 260 261 264 266 268 270 271 273 274 276 278 279 280 280 280 280 281 281 282 282 283 284 284 284 284 283 282 281 280 279 277 274 272 273 275 278 281 283 285 287 287 285 285 285 287 289 290 289 289 288 287 285 284 283 283 285 287 290 292 293 294
249 250 250 251 252 253 253 254 255 256 257 258 258 259 259 259 259 260 260 260 260 260 260 259 260 260 261 262 264 266 268 270 272 273 274 275 277 278 279 279 279 278 278 278 279 280 281 282 283 283 283 283 282 281 280 279 277 277 276 276 277 279 281 282 283 285 287 286 285 285 285 287 289 290 288 288 287 285 283 282 282 283 285 288 290 293 294 296
249 250 251 251 252 253 253 254 255 255 256 257 258 258 259 259 260 260 260 260 261 261 261 261 261 262 263 264 266 267 269 271 272 274 275 276 277 277 278 277 277 277 277 277 277 278 279 280 280 281 281 281 280 279 278 277 277 278 278 278 279 280 282 282 283 285 285 285 285 285 285 286 288 289 287 286 285 283 282 281 282 284 287 289 292 294 296 297
249 250 251 252 253 253 254 255 255 256 256 257 258 258 259 259 260 260 261 261 262 262 263 263 263 264 264 265 266 267 269 270 272 273 274 275 276 276 276 275 275 275 276 277 277 277 278 278 279 279 279 279 278 277 277 277 278 278 278 278 278 278 279 281 284 285 285 284 284 285 285 285 287 287 286 285 282 280 280 282 284 287 289 291 292 293 294 294
250 250 251 252 253 253 254 255 256 256 257 258 258 258 259 259 260 260 261 261 262 262 263 263 264 264 265 265 266 267 269 270 271 272 273 273 274 274 273 273 273 274 275 276 276 277 277 277 278 278 277 277 277 276 277 278 278 278 278 278 277 276 277 280 283 284 285 285 285 285 285 286 287 286 286 284 281 279 280 283 286 288 288 289 289 288 287 286
250 250 251 252 253 254 254 255 256 256 257 258 258 259 259 259 260 260 260 261 261 262 262 263 264 264 265 265 266 266 268 269 269 270 271 272 272 272 272 273 273 274 275 275 276 276 277 277 277 277 277 276 276 277 278 278 278 278 277 277 278 279 280 281 282 284 285 285 285 285 286 287 287 285 283 282 281 282 284 286 286 285 284 283 281 279 278 279
250 251 251 252 253 253 254 255 255 256 257 257 258 258 259 259 260 260 260 261 261 261 262 263 263 264 264 264 264 265 266 267 267 268 269 270 270 271 271 272 273 274 274 275 275 276 276 276 276 276 277 277 278 279 279 277 277 277 277 278 280 282 282 281 282 283 284 284 284 285 286 288 288 285 282 281 283 286 287 287 285 283 281 279 277 276 277 278
251 252 252 253 254 254 255 255 256 256 257 257 258 258 259 259 260 260 261 261 261 262 262 262 263 264 264 264 264 265 265 265 266 267 267 268 268 269 270 271 272 272 273 274 275 275 275 275 275 275 276 278 280 280 278 277 277 277 278 281 282 282 283 283 284 283 282 283 283 284 285 286 288 286 283 282 284 285 285 286 286 285 283 281 280 280 280 281
251 252 253 253 254 254 255 256 256 257 258 258 259 260 260 260 261 261 261 262 262 262 263 263 263 264 265 265 265 264 264 265 265 265 265 266 267 268 269 269 270 271 272 272 273 274 273 273 274 274 276 279 280 278 276 277 279 279 280 281 281 281 282 284 285 283 281 281 282 284 285 285 287 287 285 285 286 285 285 286 286 285 284 283 283 284 284 284
251 251 252 253 253 254 254 255 256 257 257 258 259 260 261 261 262 262 262 263 263 263 263 264 264 265 265 265 265 265 264 264 264 264 265 265 266 267 268 268 269 270 270 271 272 272 272 273 273 274 277 279 276 275 276 278 280 280 280 280 280 281 282 285 285 282 281 280 281 283 284 286 288 288 288 289 290 290 289 288 286 284 283 283 284 285 286 286
251 251 252 252 253 253 254 255 256 257 257 258 259 260 261 261 262 262 263 263 264 264 264 265 265 265 266 266 266 266 265 264 264 265 265 266 267 267 268 268 269 270 271 272 272 272 273 273 274 277 279 276 274 275 277 279 279 280 280 280 281 282 284 285 283 282 282 282 282 283 283 285 287 287 288 290 291 291 291 290 288 287 286 285 285 285 286 286
252 252 253 253 253 254 255 256 257 257 258 259 260 261 262 262 263 263 263 264 264 264 265 265 266 266 267 267 266 266 266 265 266 266 267 267 267 267 268 269 270 271 272 272 271 272 273 274 277 280 278 275 276 278 279 279 279 280 281 282 283 285 286 285 283 284 284 285 286 285 285 285 286 287 288 289 289 290 290 291 292 292 291 290 289 289 289 289
253 253 253 254 254 255 256 257 258 259 259 260 262 263 264 265 265 265 264 264 263 264 265 265 266 267 267 267 267 267 266 266 267 267 267 267 267 268 269 269 269 270 270 270 272 274 274 275 278 278 276 277 278 279 280 280 281 282 283 283 285 287 288 286 285 286 286 287 288 288 288 288 288 288 288 288 288 288 289 291 292 294 294 295 295 294 294 293
253 253 253 254 254 255 256 257 258 260 260 261 262 264 266 266 266 266 266 265 263 263 265 267 267 267 267 267 267 267 267 267 268 268 268 269 269 269 269 269 269 269 270 271 274 274 274 276 277 277 277 278 279 279 280 281 282 282 282 283 286 287 286 286 287 287 288 289 289 290 290 290 290 290 290 290 291 290 291 292 294 295 295 296 296 295 294 293
253 253 253 253 254 254 256 257 258 260 261 262 263 265 266 266 266 266 266 266 264 263 265 267 268 268 268 268 267 267 268 269 269 270 270 271 270 270 269 269 269 269 271 273 273 273 274 277 278 277 278 278 278 279 280 281 281 281 281 283 285 284 284 286 287 287 288 289 290 291 291 291 292 293 293 293 293 291 292 293 293 294 294 293 292 291 290 289
252 252 252 252 253 253 255 256 258 259 261 262 263 265 266 267 267 267 267 267 265 263 264 266 268 268 269 269 268 269 270 271 272 272 272 272 272 271 270 270 270 271 272 272 271 271 274 278 278 277 277 278 278 279 280 280 280 280 281 282 282 282 283 285 285 285 287 288 290 291 292 292 292 292 292 291 290 289 290 291 292 291 291 290 288 287 286 284
251 252 252 251 252 253 254 256 258 260 261 263 264 265 266 267 267 267 267 268 266 264 264 264 265 267 267 269 270 270 271 272 274 273 272 272 272 272 271 271 271 271 271 271 270 272 275 277 275 275 276 276 278 279 278 277 278 280 280 279 280 281 282 282 283 285 286 287 288 288 289 289 289 289 289 287 286 286 287 289 289 289 289 287 286 284 282 281
250 250 250 251 251 252 254 256 258 260 262 264 265 266 266 266 266 266 267 268 266 264 265 264 263 264 266 268 269 270 271 273 274 273 271 272 271 271 271 271 271 270 270 270 271 273 275 274 273 274 275 275 276 276 275 276 277 278 277 277 279 280 280 281 282 283 284 285 285 285 285 286 285 286 285 283 282 283 283 284 286 287 286 285 283 281 280 278
250 249 249 250 251 252 253 255 258 261 263 265 266 267 266 265 265 265 267 268 266 265 265 264 263 264 266 268 268 269 270 271 272 271 271 271 271 271 271 270 270 269 269 269 271 272 271 271 272 272 272 273 273 273 273 275 275 276 276 277 278 278 279 279 280 281 281 282 282 283 284 284 284 283 280 279 280 280 281 283 285 285 284 283 281 280 279 278
251 250 249 250 251 252 254 256 259 262 264 265 266 266 266 265 265 265 266 266 265 265 266 266 265 265 266 266 266 267 268 268 269 269 270 270 270 269 268 268 268 267 267 268 269 269 270 271 271 270 270 270 270 271 272 273 274 275 275 275 275 275 276 276 277 278 278 279 281 283 282 281 283 282 279 278 279 280 283 286 287 286 284 283 282 281 281 280
251 251 250 250 252 253 255 257 259 262 263 265 265 264 264 264 265 263 263 265 265 266 266 267 266 266 267 266 265 264 264 265 266 267 268 268 267 266 265 266 266 266 266 267 268 269 269 269 269 269 269 269 269 271 272 272 272 273 273 273 272 272 272 272 274 275 275 279 282 281 278 277 280 284 282 282 283 286 289 291 291 290 289 289 288 287 285 284
252 252 252 252 252 254 255 257 259 260 261 262 262 262 260 260 259 257 261 266 266 266 265 266 267 267 267 266 263 261 261 262 263 264 266 266 265 264 264 264 265 265 266 267 269 269 269 269 269 269 269 269 270 271 270 271 271 271 271 270 269 270 271 271 272 273 275 280 282 279 276 275 279 282 283 285 289 292 293 293 294 294 295 295 293 292 290 290
251 251 253 253 253 254 255 255 256 257 258 260 261 259 256 255 254 255 262 266 266 265 265 266 269 269 267 265 263 262 261 259 259 261 262 263 263 263 263 264 264 265 266 267 268 268 269 270 270 269 269 270 269 269 269 269 268 268 267 267 268 270 271 272 274 275 277 279 278 277 277 277 280 281 283 287 290 291 292 293 295 295 295 294 293 292 291 290
249 250 252 254 253 253 254 254 254 254 255 258 259 256 254 255 255 257 261 264 265 266 267 269 271 269 267 266 265 263 261 259 258 258 259 259 259 261 262 263 264 265 266 267 268 269 270 271 270 270 269 268 268 267 267 266 265 265 265 266 268 270 271 276 280 280 279 278 277 278 278 279 282 284 285 288 288 289 291 292 292 292 291 290 290 288 288 286
247 248 251 253 253 252 252 253 252 252 252 253 253 253 255 257 258 259 262 265 266 266 267 268 268 265 265 265 265 263 262 261 260 260 258 256 257 259 261 263 263 264 266 269 270 272 272 271 270 268 268 268 267 266 266 266 266 268 269 268 270 272 275 280 282 280 279 279 278 279 279 281 284 287 288 288 288 288 289 289 288 288 287 287 286 285 284 284
244 244 244 245 246 247 247 246 246 245 244 245 244 247 254 261 263 264 264 264 263 263 263 263 262 263 264 266 267 266 265 264 263 262 260 258 259 261 263 265 267 269 272 274 275 275 275 273 271 269 270 270 269 269 269 270 271 272 273 273 275 277 277 278 278 278 279 279 279 280 281 284 287 288 288 288 288 288 287 286 285 285 285 284 283 283 282 282
238 238 236 234 234 235 237 240 241 237 233 233 233 237 248 257 260 262 262 260 259 259 258 259 262 265 266 268 269 269 267 266 265 264 264 265 268 270 273 275 277 279 281 280 278 278 278 278 277 275 275 275 274 273 273 273 273 274 274 276 278 278 276 275 275 277 277 277 281 284 285 287 288 288 289 288 288 287 286 285 285 284 284 283 282 281 281 282
233 232 229 227 226 226 229 234 234 231 227 227 228 233 241 247 249 253 255 256 256 255 253 257 262 265 267 269 270 270 270 270 269 270 271 273 276 279 281 283 283 283 282 279 275 276 278 280 280 277 275 275 274 274 273 273 272 273 276 278 278 275 274 273 273 276 277 279 284 287 287 288 288 289 289 287 285 285 283 283 283 283 282 281 281 281 282 282
232 232 230 227 226 224 225 227 228 228 229 228 228 231 235 239 241 243 247 252 254 254 254 257 260 263 267 268 268 269 268 268 269 271 272 274 276 279 279 277 277 278 277 273 272 274 276 277 278 275 272 271 270 269 269 270 271 274 277 276 274 273 273 273 273 275 278 279 282 285 286 287 288 288 287 284 283 282 281 280 279 279 279 280 281 281 281 281
230 232 233 231 229 226 225 226 227 229 233 233 232 234 234 237 239 239 242 247 250 252 254 256 257 259 261 261 261 260 260 260 262 265 267 269 271 273 272 270 271 272 270 267 267 268 269 270 273 273 270 268 268 267 269 272 274 274 273 272 272 272 272 273 274 277 278 277 279 282 285 286 287 287 284 280 280 279 278 278 277 278 279 279 279 280 280 280
235 235 236 235 234 233 231 232 232 233 235 234 234 237 237 238 240 240 242 244 245 248 250 252 253 253 254 255 255 256 257 259 261 262 264 266 268 271 271 270 269 267 263 261 260 261 263 265 269 271 269 269 270 272 274 274 273 271 270 271 272 272 273 273 274 275 275 275 278 281 283 285 285 284 281 279 280 280 279 278 279 279 279 278 278 278 278 278
242 242 243 243 243 243 242 242 243 242 241 238 236 238 240 241 243 244 244 244 246 248 250 252 253 254 254 254 255 256 258 260 262 263 264 267 268 269 268 266 263 259 258 258 259 262 265 268 269 270 271 274 276 277 276 275 273 272 271 272 273 272 272 271 272 275 275 275 277 278 279 281 282 281 281 281 281 280 280 281 281 281 280 278 278 278 277 276
245 246 248 249 250 251 250 250 250 249 248 246 243 243 244 246 248 247 247 247 248 250 252 254 255 256 257 258 258 259 260 261 261 262 263 264 263 261 260 258 257 256 258 262 265 269 272 275 275 274 276 278 279 278 277 275 275 274 274 276 277 275 274 272 274 277 276 274 276 274 274 279 281 279 280 281 281 280 280 281 280 279 278 278 278 277 277 276
246 248 248 247 247 249 250 251 252 252 251 251 249 248 248 249 249 248 248 249 249 250 250 250 252 253 254 255 254 254 255 256 256 256 257 256 255 254 254 255 258 260 264 268 273 276 279 280 280 280 280 279 278 277 277 276 276 277 278 280 278 276 277 276 275 276 273 274 276 272 273 281 283 281 281 281 280 280 279 278 277 276 277 277 277 277 276 276
241 243 243 241 239 241 245 249 252 253 253 252 250 249 248 247 248 249 249 249 248 247 245 243 243 245 246 246 245 244 245 246 248 249 250 252 252 253 255 256 259 264 268 272 275 279 281 281 281 280 278 277 277 278 278 280 281 280 279 278 276 276 277 276 275 275 274 277 277 272 275 282 284 283 284 281 279 279 277 275 274 274 275 275 275 274 274 274
239 239 239 239 239 240 243 247 250 252 254 253 251 249 247 246 248 250 250 250 249 248 246 243 241 240 241 241 242 243 243 245 247 248 249 252 254 255 256 257 260 265 269 272 275 277 277 277 277 276 277 278 280 281 281 281 279 277 276 276 276 277 277 276 275 274 274 276 275 274 277 281 282 284 283 280 278 277 275 274 274 274 274 273 273 272 272 273
242 240 239 240 240 241 243 245 246 249 252 252 251 250 249 248 248 248 248 249 250 249 247 245 243 242 241 242 242 244 245 247 250 252 252 253 255 256 257 260 264 267 270 273 274 273 272 273 275 275 276 278 280 280 280 278 276 276 277 279 280 280 279 278 277 276 276 276 275 277 279 278 280 282 280 277 277 276 275 275 274 273 273 272 272 272 273 274
243 243 243 243 244 244 245 247 248 249 249 249 249 249 248 248 247 246 246 247 247 247 246 245 244 245 245 245 246 247 248 250 252 254 254 255 257 259 262 265 268 270 271 272 272 272 273 274 275 275 274 274 273 272 270 270 272 274 275 278 281 282 281 281 279 277 276 274 275 279 279 277 280 281 278 277 277 275 275 275 273 272 272 273 274 275 276 276
243 244 244 245 246 248 249 249 249 250 250 250 251 250 249 248 247 247 246 247 247 247 247 247 246 247 248 248 250 252 253 253 255 256 258 260 262 264 266 267 268 269 271 271 272 273 273 274 275 275 274 274 272 269 268 269 270 271 273 276 279 280 279 279 277 274 273 273 275 278 277 276 279 279 276 276 275 274 274 273 273 273 275 276 277 277 277 278
245 245 246 247 248 250 251 250 251 252 253 253 254 253 253 251 250 250 249 250 250 251 252 253 252 252 253 253 254 256 255 256 259 260 263 265 266 266 267 267 268 269 269 270 270 271 272 273 274 274 274 274 272 271 271 271 270 271 273 275 277 277 276 274 274 274 274 274 275 276 275 274 276 276 274 273 273 272 272 272 274 276 277 278 278 277 278 279
250 250 251 251 251 252 253 253 254 255 255 255 256 256 255 254 253 253 253 253 253 253 254 255 255 255 256 256 256 257 258 260 262 263 264 265 265 265 266 266 267 267 267 267 268 269 270 271 272 272 272 271 271 272 271 271 271 271 273 276 277 275 273 274 275 275 274 274 275 275 274 274 275 275 274 273 272 272 273 275 277 278 278 278 278 279 280 280
255 255 255 255 255 254 254 255 256 256 256 256 257 257 256 256 256 256 255 254 254 254 254 254 254 254 255 256 257 258 259 260 261 262 263 263 263 264 265 265 265 265 266 267 267 268 269 270 271 271 270 270 271 271 271 271 271 271 274 278 276 274 274 275 274 272 272 273 274 273 274 275 277 276 274 274 274 275 276 277 277 276 277 278 279 280 280 280
256 256 256 256 256 255 255 256 256 256 256 257 258 257 257 256 256 256 256 256 255 255 255 254 254 254 255 255 257 257 258 258 259 260 261 262 263 263 264 264 265 265 266 267 268 269 270 270 271 271 270 270 271 270 271 271 269 271 277 279 276 274 274 272 270 270 271 272 272 273 274 276 276 274 273 274 275 276 276 276 276 276 277 278 278 278 279 279
Height
5862 5863 5864 5865 5866 5866 5867 5868 5868 5869 5870 5871 5871 5872 5872 5873 5873 5873 5874 5874 5874 5875 5875 5875 5875 5875 5875 5875 5875 5875 5875 5875 5875 5875 5875 5876 5875 5876 5876 5876 5876 5876 5876 5876 5876 5876 5875 5875 5875 5874 5874 5874 5873 5873 5873 5873 5873 5872 5871 5870 5869 5868 5868 5867 5867 5867 5867 5866 5866 5865 5866 5866 5865 5865 5865 5864 5863 5861 5860 5860 5859 5858 5856 5855 5855 5854 5854 5853
5860 5861 5862 5863 5864 5864 5865 5866 5867 5867 5868 5869 5869 5870 5870 5871 5871 5872 5872 5872 5873 5873 5873 5873 5873 5873 5874 5874 5874 5873 5873 5874 5874 5874 5874 5874 5874 5874 5874 5874 5874 5874 5874 5874 5874 5874 5874 5873 5873 5873 5872 5872 5871 5871 5871 5871 5871 5870 5869 5868 5867 5866 5866 5865 5865 5865 5865 5865 5864 5864 5864 5864 5863 5863 5863 5863 5861 5859 5859 5858 5857 5856 5854 5853 5852 5852 5851 5851
5858 5859 5860 5861 5861 5862 5863 5864 5864 5865 5866 5867 5867 5868 5868 5869 5869 5869 5870 5870 5871 5871 5871 5871 5871 5872 5872 5872 5871 5871 5871 5872 5872 5872 5872 5872 5872 5872 5872 5872 5872 5872 5872 5872 5872 5872 5872 5871 5871 5870 5870 5870 5869 5869 5869 5869 5869 5868 5867 5866 5865 5864 5863 5863 5863 5863 5863 5863 5862 5862 5862 5862 5861 5861 5861 5861 5860 5857 5857 5856 5854 5853 5852 5851 5849 5848 5848 5849
5855 5856 5857 5858 5859 5860 5861 5861 5862 5863 5864 5864 5865 5865 5866 5866 5867 5867 5868 5868 5868 5869 5869 5869 5869 5869 5869 5869 5869 5869 5869 5869 5870 5870 5870 5870 5870 5870 5870 5870 5870 5870 5870 5870 5870 5870 5869 5869 5868 5868 5868 5867 5867 5866 5866 5867 5866 5865 5864 5864 5863 5862 5861 5861 5861 5860 5860 5860 5860 5860 5860 5859 5858 5858 5858 5859 5858 5855 5854 5854 5852 5850 5849 5848 5846 5846 5846 5847
5853 5854 5855 5855 5856 5857 5858 5859 5860 5860 5861 5862 5862 5863 5863 5864 5864 5865 5865 5865 5866 5866 5866 5867 5867 5867 5867 5867 5867 5867 5867 5867 5867 5868 5868 5868 5868 5868 5868 5868 5868 5867 5867 5867 5867 5867 5867 5867 5866 5866 5865 5865 5864 5863 5864 5864 5863 5862 5861 5861 5861 5860 5859 5858 5858 5858 5857 5857 5858 5858 5858 5857 5855 5855 5855 5855 5855 5854 5852 5850 5849 5847 5846 5846 5844 5844 5845 5846
5850 5851 5852 5852 5853 5854 5855 5856 5857 5857 5858 5859 5860 5860 5861 5861 5862 5862 5862 5863 5863 5863 5864 5864 5864 5865 5865 5865 5865 5865 5865 5865 5865 5866 5866 5866 5866 5866 5865 5865 5865 5865 5865 5865 5864 5864 5864 5864 5863 5863 5862 5862 5861 5861 5861 5861 5860 5860 5858 5858 5858 5858 5857 5856 5856 5855 5854 5855 5855 5855 5855 5854 5853 5853 5852 5852 5851 5851 5850 5847 5844 5843 5843 5844 5844 5844 5844 5844
5847 5847 5848 5849 5850 5851 5852 5853 5854 5854 5855 5856 5857 5857 5858 5858 5859 5859 5859 5860 5860 5861 5861 5861 5862 5862 5862 5863 5863 5863 5862 5862 5863 5864 5863 5863 5863 5863 5863 5862 5862 5862 5862 5862 5862 5861 5861 5861 5860 5860 5859 5859 5858 5858 5857 5858 5858 5857 5856 5856 5856 5856 5855 5854 5854 5852 5852 5852 5852 5852 5852 5851 5851 5852 5850 5849 5849 5848 5847 5845 5842 5839 5839 5841 5842 5842 5842 5842
5843 5844 5845 5846 5847 5848 5849 5849 5850 5851 5852 5853 5853 5854 5854 5855 5855 5856 5856 5857 5857 5858 5858 5858 5859 5859 5860 5860 5860 5861 5860 5859 5861 5861 5860 5860 5860 5860 5860 5860 5860 5859 5859 5859 5858 5858 5858 5857 5857 5857 5857 5856 5856 5855 5854 5855 5855 5855 5854 5854 5854 5853 5853 5853 5852 5850 5850 5851 5850 5850 5850 5849 5849 5850 5849 5847 5846 5845 5844 5842 5840 5836 5836 5837 5839 5840 5840 5840
5839 5840 5841 5842 5843 5844 5845 5846 5846 5847 5848 5849 5850 5850 5851 5851 5852 5852 5853 5853 5854 5854 5855 5855 5856 5856 5857 5857 5858 5858 5856 5857 5858 5857 5857 5857 5857 5857 5857 5857 5857 5856 5856 5856 5855 5855 5854 5854 5854 5854 5853 5853 5853 5852 5851 5852 5852 5852 5852 5852 5852 5851 5851 5850 5849 5848 5848 5849 5847 5848 5848 5847 5847 5848 5846 5844 5844 5843 5841 5840 5838 5836 5835 5835 5836 5837 5837 5838
5836 5837 5837 5838 5839 5840 5841 5842 5842 5843 5844 5845 5846 5846 5847 5848 5848 5849 5849 5849 5850 5851 5852 5852 5853 5853 5854 5854 5855 5855 5853 5854 5854 5854 5854 5854 5854 5854 5854 5853 5853 5853 5853 5852 5852 5852 5851 5851 5851 5850 5850 5850 5850 5849 5849 5849 5849 5849 5849 5850 5850 5849 5849 5847 5846 5846 5846 5846 5844 5845 5846 5844 5844 5845 5843 5842 5841 5840 5838 5837 5835 5834 5834 5833 5834 5834 5835 5834
5831 5832 5833 5834 5835 5836 5837 5838 5838 5839 5840 5841 5842 5842 5843 5844 5844 5845 5845 5846 5846 5847 5848 5849 5849 5850 5850 5851 5852 5851 5849 5850 5851 5850 5850 5850 5850 5850 5850 5850 5849 5849 5849 5849 5849 5848 5848 5847 5847 5847 5847 5847 5847 5846 5846 5846 5846 5846 5846 5847 5846 5846 5846 5844 5843 5843 5843 5842 5840 5840 5842 5842 5841 5841 5841 5839 5838 5836 5835 5834 5832 5832 5832 5832 5832 5832 5831 5831
5827 5828 5829 5830 5831 5832 5833 5834 5835 5835 5836 5837 5838 5839 5839 5840 5841 5841 5842 5842 5843 5844 5844 5845 5846 5846 5847 5848 5849 5848 5847 5847 5846 5846 5846 5846 5846 5846 5846 5846 5845 5845 5845 5845 5845 5845 5844 5844 5844 5844 5844 5844 5844 5843 5843 5843 5843 5843 5842 5843 5843 5842 5842 5840 5839 5840 5840 5838 5837 5836 5838 5840 5839 5838 5837 5836 5835 5833 5831 5830 5829 5830 5830 5830 5830 5829 5828 5827
5823 5824 5825 5826 5827 5828 5829 5830 5831 5831 5832 5833 5834 5834 5835 5836 5836 5837 5838 5839 5839 5840 5840 5841 5841 5842 5843 5844 5845 5843 5843 5843 5843 5842 5842 5842 5842 5842 5842 5842 5842 5841 5841 5841 5841 5841 5840 5840 5840 5840 5840 5840 5841 5840 5839 5840 5840 5840 5838 5839 5839 5839 5839 5838 5836 5837 5836 5834 5833 5832 5833 5837 5838 5835 5833 5832 5831 5830 5828 5827 5827 5827 5828 5827 5827 5826 5825 5824
5818 5819 5821 5822 5823 5824 5825 5826 5826 5827 5828 5829 5829 5830 5831 5831 5832 5833 5834 5834 5835 5835 5836 5836 5837 5837 5838 5840 5841 5840 5840 5839 5839 5838 5838 5838 5838 5838 5838 5838 5838 5838 5838 5837 5837 5837 5836 5836 5836 5836 5836 5836 5836 5836 5836 5836 5836 5835 5834 5834 5834 5835 5837 5836 5834 5833 5832 5830 5830 5828 5828 5832 5835 5832 5829 5828 5827 5826 5825 5825 5825 5825 5825 5824 5824 5823 5822 5821
5813 5815 5816 5817 5818 5819 5820 5821 5822 5823 5823 5824 5825 5825 5826 5827 5828 5828 5829 5830 5830 5831 5831 5832 5832 5833 5834 5836 5836 5836 5836 5835 5835 5835 5834 5835 5834 5834 5834 5833 5834 5834 5834 5833 5833 5833 5832 5832 5832 5831 5832 5832 5832 5832 5832 5832 5832 5831 5829 5829 5830 5830 5833 5834 5831 5829 5828 5826 5825 5824 5824 5826 5830 5830 5826 5823 5822 5822 5823 5823 5823 5822 5822 5821 5820 5819 5819 5818
5809 5810 5811 5812 5814 5815 5815 5816 5817 5818 5818 5819 5820 5821 5821 5822 5823 5823 5824 5825 5825 5826 5827 5827 5827 5828 5829 5831 5831 5831 5832 5831 5831 5831 5831 5830 5830 5830 5830 5830 5830 5829 5829 5829 5829 5829 5828 5828 5828 5827 5827 5828 5828 5828 5828 5827 5828 5827 5825 5825 5826 5826 5827 5829 5829 5826 5823 5822 5821 5820 5820 5821 5824 5825 5823 5820 5819 5820 5820 5820 5819 5819 5818 5818 5817 5816 5815 5815
5804 5805 5807 5808 5809 5810 5811 5812 5812 5813 5814 5815 5815 5816 5817 5817 5818 5819 5819 5820 5820 5821 5821 5822 5823 5823 5823 5826 5827 5827 5826 5826 5827 5826 5826 5826 5826 5826 5825 5826 5825 5825 5825 5824 5824 5824 5824 5823 5823 5824 5824 5824 5825 5824 5822 5822 5823 5823 5821 5821 5821 5821 5821 5823 5825 5823 5820 5818 5817 5817 5817 5817 5819 5820 5818 5817 5817 5817 5817 5816 5815 5815 5815 5814 5813 5813 5812 5812
5799 5800 5802 5803 5804 5805 5806 5807 5808 5808 5809 5810 5811 5811 5812 5813 5813 5814 5815 5815 5816 5816 5816 5817 5818 5818 5819 5821 5821 5822 5821 5822 5822 5822 5821 5821 5821 5821 5821 5821 5821 5821 5821 5820 5820 5820 5819 5819 5819 5820 5821 5822 5821 5819 5817 5817 5818 5818 5818 5817 5816 5817 5817 5818 5819 5818 5816 5815 5814 5813 5813 5813 5815 5815 5813 5813 5813 5813 5813 5813 5812 5811 5811 5810 5810 5809 5808 5808
5795 5796 5797 5798 5799 5800 5801 5802 5803 5804 5805 5805 5806 5807 5807 5808 5808 5809 5810 5810 5811 5812 5811 5812 5813 5813 5814 5815 5816 5816 5817 5817 5817 5817 5817 5817 5817 5818 5817 5817 5817 5817 5816 5816 5816 5815 5815 5815 5814 5816 5819 5819 5816 5814 5813 5814 5814 5814 5814 5813 5812 5812 5813 5814 5814 5812 5811 5811 5811 5811 5809 5810 5810 5810 5809 5808 5808 5808 5808 5808 5808 5808 5807 5807 5806 5805 5804 5803
5790 5791 5792 5793 5794 5795 5796 5797 5798 5799 5800 5801 5801 5802 5803 5803 5804 5804 5805 5805 5806 5807 5807 5807 5808 5808 5809 5811 5811 5811 5812 5812 5812 5813 5813 5813 5813 5813 5813 5813 5813 5812 5813 5813 5811 5811 5811 5809 5810 5813 5815 5813 5811 5810 5810 5810 5810 5809 5809 5809 5808 5808 5809 5810 5808 5807 5806 5805 5807 5807 5806 5807 5806 5806 5805 5804 5803 5802 5802 5802 5803 5803 5803 5803 5802 5801 5801 5800
5785 5786 5787 5788 5789 5790 5791 5793 5794 5794 5795 5796 5797 5797 5798 5798 5798 5799 5800 5800 5801 5801 5802 5802 5803 5804 5805 5805 5806 5806 5806 5807 5808 5809 5809 5809 5809 5808 5809 5809 5808 5808 5809 5808 5806 5806 5806 5805 5807 5810 5809 5806 5806 5806 5806 5806 5805 5804 5804 5804 5804 5804 5805 5805 5803 5802 5801 5800 5801 5802 5802 5803 5802 5802 5801 5801 5800 5799 5798 5798 5797 5798 5798 5798 5798 5797 5797 5796
5779 5781 5782 5783 5784 5785 5786 5787 5788 5789 5790 5791 5792 5792 5792 5793 5793 5793 5794 5795 5796 5796 5796 5797 5798 5799 5801 5800 5800 5801 5801 5802 5804 5804 5804 5804 5804 5804 5804 5804 5804 5804 5803 5802 5802 5802 5801 5801 5804 5805 5802 5801 5802 5802 5801 5801 5800 5800 5800 5799 5799 5800 5799 5798 5798 5798 5797 5796 5796 5796 5797 5798 5798 5797 5797 5797 5796 5795 5794 5794 5793 5793 5792 5792 5792 5792 5792 5792
5774 5775 5776 5778 5779 5780 5781 5782 5783 5784 5785 5786 5787 5787 5787 5788 5788 5788 5788 5788 5790 5792 5792 5792 5793 5794 5795 5795 5795 5795 5794 5797 5798 5798 5799 5799 5800 5800 5799 5799 5799 5798 5798 5798 5798 5797 5795 5797 5800 5799 5797 5797 5797 5797 5796 5796 5796 5796 5795 5794 5796 5796 5794 5793 5794 5793 5792 5791 5791 5791 5791 5792 5792 5792 5792 5792 5791 5790 5789 5789 5789 5788 5788 5787 5787 5787 5787 5786
5768 5769 5770 5772 5773 5775 5776 5777 5778 5779 5780 5781 5781 5782 5782 5783 5783 5783 5782 5781 5783 5788 5788 5787 5787 5788 5790 5790 5789 5789 5789 5791 5793 5793 5794 5794 5794 5794 5793 5794 5793 5793 5794 5794 5793 5791 5791 5793 5794 5793 5793 5792 5792 5792 5792 5792 5792 5791 5791 5791 5791 5791 5789 5789 5789 5788 5787 5787 5787 5786 5786 5787 5788 5787 5787 5787 5786 5785 5785 5785 5784 5784 5783 5783 5783 5782 5782 5782
5762 5763 5764 5766 5767 5769 5770 5771 5773 5774 5775 5776 5776 5777 5777 5777 5778 5777 5777 5775 5775 5781 5784 5783 5782 5782 5783 5784 5784 5785 5785 5786 5787 5788 5788 5788 5788 5788 5788 5788 5788 5788 5790 5789 5787 5786 5788 5790 5789 5788 5788 5787 5787 5788 5788 5788 5787 5787 5788 5787 5786 5786 5785 5785 5784 5784 5783 5783 5783 5782 5780 5782 5784 5783 5783 5783 5782 5781 5781 5780 5780 5780 5779 5779 5779 5778 5778 5777
5755 5757 5758 5760 5761 5763 5764 5765 5767 5768 5769 5770 5770 5771 5771 5772 5772 5772 5772 5769 5767 5772 5777 5779 5778 5777 5778 5779 5780 5781 5780 5781 5783 5783 5783 5783 5782 5782 5782 5783 5783 5784 5784 5783 5782 5782 5784 5785 5783 5783 5783 5783 5783 5784 5784 5783 5782 5783 5784 5782 5782 5781 5781 5781 5780 5779 5779 5779 5779 5778 5777 5777 5778 5779 5779 5778 5778 5778 5777 5776 5776 5775 5775 5775 5774 5774 5773 5772
5749 5751 5752 5753 5755 5757 5758 5760 5762 5763 5763 5764 5765 5765 5765 5766 5766 5766 5767 5763 5760 5764 5768 5771 5772 5772 5773 5774 5775 5776 5775 5776 5778 5777 5777 5777 5777 5777 5776 5777 5778 5779 5778 5777 5777 5779 5780 5779 5778 5779 5779 5779 5779 5779 5778 5778 5778 5779 5779 5778 5777 5777 5776 5776 5775 5774 5774 5774 5774 5774 5774 5773 5773 5774 5773 5772 5773 5774 5773 5773 5772 5772 5771 5770 5769 5769 5768 5767
5742 5744 5745 5747 5749 5751 5752 5754 5756 5757 5758 5758 5759 5759 5759 5759 5760 5761 5761 5757 5755 5757 5760 5762 5764 5767 5769 5770 5770 5771 5770 5771 5772 5771 5772 5771 5771 5772 5771 5772 5773 5773 5772 5772 5773 5774 5774 5774 5774 5775 5775 5775 5775 5774 5773 5774 5774 5774 5774 5773 5773 5772 5772 5771 5770 5769 5769 5769 5768 5770 5771 5769 5767 5768 5767 5767 5768 5768 5768 5768 5768 5767 5766 5765 5764 5763 5762 5761
5735 5737 5739 5741 5743 5744 5746 5749 5750 5751 5751 5752 5752 5752 5752 5753 5754 5755 5753 5751 5750 5751 5752 5754 5757 5761 5763 5764 5765 5766 5765 5766 5765 5765 5766 5766 5766 5766 5766 5766 5767 5767 5767 5767 5768 5769 5768 5769 5769 5769 5770 5770 5769 5769 5770 5769 5769 5769 5769 5768 5768 5768 5767 5766 5765 5765 5764 5763 5764 5766 5767 5764 5762 5761 5760 5761 5763 5763 5762 5762 5762 5761 5761 5759 5758 5757 5756 5755
5728 5730 5732 5734 5736 5738 5741 5743 5744 5744 5744 5745 5745 5746 5747 5747 5748 5747 5745 5745 5747 5746 5745 5748 5751 5754 5757 5758 5760 5760 5760 5760 5760 5760 5760 5760 5760 5761 5761 5761 5761 5762 5762 5762 5763 5763 5764 5764 5764 5764 5765 5765 5764 5765 5765 5765 5765 5765 5764 5764 5763 5763 5762 5762 5761 5761 5759 5758 5760 5762 5761 5759 5756 5754 5753 5754 5756 5756 5756 5755 5754 5753 5753 5752 5751 5750 5749 5748
5722 5724 5725 5727 5730 5732 5734 5737 5738 5737 5738 5739 5739 5740 5741 5741 5740 5739 5738 5741 5742 5740 5740 5742 5745 5749 5751 5752 5753 5753 5754 5754 5754 5754 5754 5754 5755 5755 5756 5756 5756 5757 5757 5758 5758 5758 5759 5759 5759 5759 5760 5760 5760 5761 5760 5760 5761 5760 5759 5759 5758 5757 5757 5757 5757 5756 5755 5755 5756 5756 5755 5754 5752 5750 5749 5748 5749 5749 5748 5747 5746 5745 5745 5744 5743 5742 5740 5739
5717 5718 5719 5721 5723 5725 5728 5731 5731 5731 5731 5733 5734 5735 5735 5733 5732 5733 5735 5738 5737 5734 5736 5738 5740 5744 5744 5745 5746 5747 5748 5748 5748 5749 5749 5749 5750 5750 5751 5751 5751 5752 5752 5753 5754 5753 5753 5754 5754 5754 5755 5755 5756 5756 5756 5756 5756 5755 5754 5754 5753 5752 5752 5751 5752 5752 5751 5751 5750 5749 5748 5747 5746 5746 5746 5745 5744 5742 5740 5740 5739 5738 5737 5736 5736 5735 5734 5732
5711 5713 5713 5714 5717 5719 5722 5724 5724 5725 5727 5728 5728 5729 5728 5725 5725 5729 5732 5733 5731 5730 5732 5734 5736 5737 5738 5739 5740 5740 5741 5741 5742 5743 5743 5744 5745 5745 5746 5746 5747 5747 5747 5748 5748 5748 5748 5748 5749 5749 5750 5750 5750 5751 5751 5751 5750 5749 5749 5749 5748 5747 5746 5746 5746 5746 5744 5744 5743 5743 5742 5741 5741 5742 5742 5741 5739 5737 5736 5735 5733 5732 5731 5730 5730 5729 5728 5727
5706 5707 5707 5708 5711 5714 5716 5717 5718 5720 5722 5723 5723 5722 5720 5718 5719 5723 5726 5728 5728 5728 5729 5730 5730 5731 5731 5732 5733 5734 5735 5735 5736 5737 5738 5739 5740 5740 5741 5742 5742 5742 5742 5742 5742 5742 5743 5743 5744 5744 5744 5745 5745 5745 5745 5744 5743 5743 5744 5743 5742 5742 5741 5741 5740 5738 5737 5737 5737 5737 5736 5736 5737 5737 5736 5735 5733 5731 5731 5729 5728 5727 5726 5725 5724 5723 5722 5721
5701 5701 5701 5703 5704 5707 5710 5711 5713 5714 5715 5716 5716 5713 5711 5711 5714 5717 5721 5723 5724 5724 5725 5724 5725 5725 5725 5726 5727 5728 5729 5729 5730 5731 5732 5733 5734 5735 5736 5736 5737 5736 5736 5736 5736 5736 5736 5737 5738 5738 5738 5739 5739 5739 5739 5738 5737 5737 5737 5736 5736 5738 5737 5734 5732 5731 5731 5730 5730 5730 5730 5732 5733 5732 5729 5727 5726 5725 5724 5723 5721 5720 5720 5719 5718 5717 5716 5715
5693 5694 5696 5697 5698 5701 5703 5705 5708 5708 5709 5709 5706 5704 5705 5708 5710 5712 5714 5716 5718 5719 5720 5719 5720 5720 5720 5721 5721 5722 5723 5723 5724 5724 5725 5726 5726 5727 5728 5729 5729 5729 5729 5729 5729 5729 5728 5729 5731 5731 5732 5732 5732 5732 5732 5732 5731 5730 5731 5731 5732 5732 5730 5727 5725 5726 5725 5723 5724 5725 5724 5725 5727 5726 5724 5722 5720 5718 5716 5715 5714 5713 5712 5711 5710 5710 5709 5708
5687 5688 5689 5691 5693 5694 5697 5699 5701 5701 5702 5701 5698 5698 5703 5706 5706 5707 5708 5709 5711 5713 5714 5715 5714 5714 5714 5715 5716 5716 5716 5716 5716 5717 5718 5718 5718 5719 5720 5722 5722 5722 5723 5724 5723 5723 5722 5723 5725 5726 5726 5726 5726 5726 5726 5726 5725 5725 5726 5727 5726 5724 5722 5721 5719 5719 5719 5717 5717 5719 5718 5718 5719 5720 5719 5716 5714 5711 5709 5709 5708 5706 5705 5704 5703 5703 5702 5702
5680 5682 5683 5685 5687 5688 5690 5692 5692 5694 5693 5692 5692 5695 5698 5699 5701 5702 5702 5703 5705 5706 5708 5709 5710 5710 5710 5710 5711 5711 5711 5711 5711 5712 5713 5713 5713 5714 5716 5717 5717 5717 5718 5718 5717 5717 5717 5718 5719 5719 5720 5721 5722 5721 5720 5720 5720 5721 5722 5721 5719 5716 5715 5715 5714 5713 5713 5710 5710 5712 5713 5713 5713 5713 5712 5710 5708 5705 5703 5703 5702 5700 5699 5698 5697 5696 5695 5695
5674 5675 5676 5679 5681 5682 5683 5683 5685 5686 5684 5685 5689 5691 5692 5694 5695 5696 5697 5698 5699 5700 5702 5703 5705 5706 5706 5706 5707 5707 5706 5707 5707 5707 5708 5709 5708 5710 5711 5713 5713 5713 5713 5713 5712 5712 5711 5711 5711 5713 5713 5714 5715 5714 5715 5716 5716 5716 5714 5713 5712 5710 5709 5709 5708 5707 5706 5702 5702 5704 5707 5709 5708 5706 5704 5701 5701 5700 5696 5696 5695 5695 5694 5693 5691 5690 5689 5689
5666 5668 5670 5673 5674 5675 5676 5676 5677 5677 5675 5680 5686 5686 5687 5690 5690 5691 5692 5692 5693 5694 5695 5696 5698 5700 5701 5701 5701 5701 5701 5700 5701 5702 5702 5703 5704 5705 5706 5708 5709 5709 5708 5707 5707 5707 5706 5705 5705 5707 5706 5706 5707 5709 5710 5710 5708 5707 5706 5705 5706 5705 5703 5702 5701 5701 5699 5695 5696 5695 5697 5704 5704 5698 5693 5691 5695 5695 5690 5690 5690 5689 5688 5687 5685 5684 5683 5682
5659 5661 5663 5666 5667 5667 5668 5668 5669 5670 5670 5675 5679 5680 5682 5684 5684 5685 5685 5685 5686 5687 5689 5690 5691 5692 5694 5694 5695 5695 5694 5694 5695 5696 5696 5697 5699 5700 5701 5702 5702 5703 5702 5701 5701 5701 5700 5699 5699 5700 5699 5699 5701 5702 5702 5701 5699 5699 5699 5699 5700 5699 5698 5695 5693 5695 5694 5690 5691 5687 5686 5696 5700 5692 5685 5684 5688 5690 5685 5685 5685 5682 5681 5679 5677 5677 5675 5674
5652 5655 5657 5658 5659 5660 5660 5661 5663 5664 5665 5669 5673 5674 5675 5676 5677 5678 5678 5679 5681 5682 5683 5684 5685 5686 5686 5687 5688 5688 5688 5688 5689 5689 5690 5692 5694 5694 5695 5696 5695 5696 5695 5694 5694 5694 5692 5691 5692 5693 5694 5694 5693 5693 5693 5693 5692 5691 5691 5693 5694 5692 5691 5688 5685 5689 5689 5684 5685 5680 5677 5688 5694 5688 5683 5678 5680 5683 5681 5680 5678 5674 5672 5671 5670 5669 5667 5666
5646 5648 5650 5651 5651 5652 5652 5653 5656 5658 5661 5664 5666 5667 5668 5668 5670 5671 5671 5673 5675 5676 5678 5679 5680 5680 5681 5682 5682 5682 5682 5681 5681 5682 5684 5685 5687 5688 5688 5689 5689 5688 5688 5687 5686 5685 5684 5683 5684 5686 5686 5685 5684 5684 5685 5685 5685 5685 5685 5687 5687 5684 5684 5682 5680 5681 5679 5677 5679 5673 5669 5678 5684 5682 5681 5675 5673 5675 5676 5673 5670 5667 5666 5665 5662 5661 5659 5658
5638 5640 5642 5643 5643 5644 5644 5647 5650 5652 5655 5658 5658 5659 5661 5661 5662 5664 5665 5666 5667 5669 5671 5672 5673 5674 5675 5675 5675 5675 5675 5674 5674 5675 5676 5677 5679 5681 5681 5682 5682 5682 5681 5680 5680 5679 5677 5676 5677 5678 5677 5675 5676 5677 5678 5679 5680 5679 5679 5680 5680 5679 5678 5676 5674 5672 5668 5669 5671 5665 5661 5669 5675 5675 5675 5670 5666 5668 5668 5664 5662 5660 5659 5658 5655 5653 5651 5650
5630 5631 5633 5634 5635 5636 5639 5642 5643 5644 5648 5649 5650 5652 5653 5653 5656 5658 5657 5658 5659 5661 5662 5663 5665 5666 5667 5667 5667 5667 5668 5667 5667 5667 5669 5671 5672 5673 5674 5674 5675 5676 5675 5674 5675 5674 5671 5669 5670 5669 5668 5668 5669 5670 5671 5673 5672 5670 5671 5673 5673 5673 5671 5669 5668 5664 5659 5659 5662 5659 5656 5660 5667 5669 5666 5661 5659 5660 5659 5655 5655 5654 5652 5649 5647 5645 5644 5643
5621 5623 5626 5627 5627 5629 5633 5636 5636 5637 5641 5641 5641 5644 5646 5647 5651 5652 5650 5651 5652 5653 5653 5655 5657 5658 5659 5660 5660 5660 5661 5661 5660 5660 5663 5665 5664 5664 5665 5666 5668 5668 5668 5669 5669 5668 5664 5662 5663 5663 5662 5662 5663 5663 5664 5664 5663 5662 5663 5665 5665 5665 5664 5662 5660 5655 5652 5650 5650 5653 5653 5652 5658 5663 5657 5653 5653 5651 5648 5647 5646 5645 5642 5640 5639 5637 5637 5637
5612 5615 5620 5620 5619 5622 5627 5630 5630 5632 5634 5633 5633 5637 5640 5641 5644 5644 5643 5644 5644 5645 5644 5645 5648 5650 5652 5653 5652 5652 5654 5654 5653 5653 5655 5656 5656 5656 5658 5660 5660 5661 5661 5661 5660 5659 5656 5654 5656 5656 5655 5656 5657 5657 5656 5655 5655 5655 5655 5657 5658 5657 5656 5655 5651 5646 5646 5642 5639 5646 5647 5641 5648 5656 5650 5645 5645 5642 5639 5638 5637 5635 5633 5632 5631 5630 5630 5629
5605 5609 5612 5611 5611 5616 5621 5623 5624 5624 5624 5625 5626 5630 5632 5634 5635 5636 5636 5636 5636 5637 5637 5637 5641 5644 5644 5645 5644 5643 5646 5646 5645 5645 5647 5647 5648 5649 5650 5652 5653 5653 5654 5652 5651 5651 5648 5646 5649 5649 5647 5648 5649 5649 5648 5648 5647 5647 5649 5651 5653 5651 5648 5646 5642 5639 5638 5635 5633 5639 5637 5632 5640 5647 5642 5638 5636 5633 5631 5629 5626 5626 5627 5626 5624 5622 5621 5618
5597 5600 5603 5602 5604 5609 5613 5614 5614 5614 5616 5617 5618 5622 5625 5626 5627 5628 5628 5627 5627 5630 5630 5630 5635 5637 5635 5635 5635 5634 5637 5638 5636 5637 5639 5640 5640 5642 5643 5644 5646 5647 5646 5645 5644 5643 5640 5639 5641 5641 5639 5639 5640 5640 5640 5639 5637 5639 5642 5646 5647 5645 5640 5636 5634 5634 5632 5626 5627 5631 5626 5625 5634 5636 5632 5630 5627 5623 5622 5621 5620 5621 5620 5618 5615 5613 5612 5610
5589 5592 5593 5594 5597 5602 5603 5604 5604 5605 5608 5609 5610 5616 5617 5616 5618 5620 5619 5618 5620 5623 5622 5623 5628 5628 5625 5626 5626 5628 5632 5631 5628 5629 5632 5631 5632 5635 5636 5637 5639 5639 5638 5637 5636 5635 5634 5632 5633 5634 5631 5629 5630 5631 5631 5630 5629 5629 5634 5640 5640 5635 5631 5630 5629 5628 5624 5619 5621 5621 5614 5617 5628 5627 5621 5620 5617 5614 5615 5616 5616 5614 5610 5608 5606 5605 5604 5602
5581 5583 5585 5586 5589 5593 5594 5595 5597 5597 5599 5601 5605 5609 5609 5608 5611 5611 5609 5610 5613 5614 5615 5617 5619 5618 5617 5619 5620 5624 5626 5623 5619 5622 5624 5623 5625 5628 5628 5629 5631 5630 5629 5630 5628 5627 5627 5625 5624 5624 5620 5619 5622 5622 5621 5623 5621 5619 5627 5634 5631 5626 5626 5625 5621 5619 5617 5613 5612 5610 5605 5611 5619 5616 5609 5608 5608 5607 5608 5609 5608 5606 5602 5600 5599 5598 5596 5594
5573 5575 5578 5579 5581 5584 5586 5588 5588 5588 5592 5597 5599 5600 5600 5601 5602 5601 5600 5603 5605 5606 5607 5610 5611 5610 5610 5612 5615 5618 5617 5613 5612 5615 5615 5615 5618 5620 5620 5620 5622 5622 5621 5622 5620 5619 5619 5617 5615 5614 5610 5609 5614 5613 5612 5614 5610 5611 5622 5626 5622 5620 5619 5615 5611 5611 5611 5607 5602 5601 5601 5605 5607 5603 5600 5601 5601 5600 5600 5600 5599 5598 5596 5593 5591 5590 5587 5585